Regional Weather Roundup
Issued by NWS

Home | Current Version | Previous Version | Text Only | Print | Product List | Glossary Off
Versions: 1 2 3 4 5 6 7 8 9 10 11 12 13 14 15 16 17 18 19 20 21 22 23 24 25 26 27 28 29 30 31 32 33 34 35 36 37 38 39 40 41 42 43 44 45 46 47 48 49 50

000
ASUS43 KLOT 190809
RWRIL

ILLINOIS REGIONAL WEATHER ROUNDUP
NATIONAL WEATHER SERVICE CHICAGO/ROMEOVILLE IL
300 AM CDT TUE SEP 19 2017

NOTE: "FAIR" INDICATES FEW OR NO CLOUDS BELOW 12,000 FEET WITH NO
SIGNIFICANT WEATHER AND/OR OBSTRUCTIONS TO VISIBILITY.

* THESE STATIONS ARE NOT UNDER NWS QUALITY CONTROL. THEY ALSO MAY NOT
  REPORT WEATHER SUCH AS PRECIPITATION OR FOG.

ILZ001-002-007-009-015-016-024-190900-
NORTHWEST ILLINOIS

CITY           SKY/WX    TMP DP  RH WIND       PRES   REMARKS
MOLINE         CLOUDY    66  63  90 E7        29.93S FOG
STERLING*        N/A     60  59  96 NE3       29.95F
SAVANNA*       CLOUDY    60  58  93 CALM      29.95S
$$

ILZ003-004-008-010-011-017-018-190900-
NORTH CENTRAL ILLINOIS

CITY           SKY/WX    TMP DP  RH WIND       PRES   REMARKS
ROCKFORD       LGT RAIN  61  59  93 E6        29.97F FOG
FREEPORT*      CLOUDY    58  57  99 CALM      29.98F
ROCHELLE*      RAIN      61  60  96 N3        29.97F
DE KALB*       RAIN      62  60  96 N3        29.97F
PERU*          DRIZZLE   60  58  92 NE3       29.96S
$$

ILZ005-006-012>014-019>023-190900-
NORTHEAST ILLINOIS

CITY           SKY/WX    TMP DP  RH WIND       PRES   REMARKS
CHICAGO-OHARE  LGT RAIN  67  63  87 N3        29.94F
CHICAGO-MIDWAY LGT RAIN  68  65  90 CALM      29.94F FOG
AURORA         LGT RAIN  62  62 100 NE3       29.95S
LANSING*       HVY RAIN  64  64 100 CALM      29.94F
JOLIET*        CLOUDY    64  64  98 CALM      29.94F
WAUKEGAN       CLOUDY    64  32  30 CALM      29.95S
DUPAGE AIRPORT CLOUDY    63  63 100 E3        29.95F FOG
KANKAKEE*      CLOUDY    64  63  97 NW5       29.93F FOG
WHEELING       CLOUDY    67  65  93 CALM      29.96S
MORRIS*        LGT RAIN  62  61  96 CALM      29.93F
ROMEOVILLE*    LGT RAIN  63  62  97 N6        29.95F
NORTHERLY ISL    N/A     67  64  90 N3          N/A
$$

LMZ740>746-190900-
SOUTHERN LAKE MICHIGAN

STATION/POSITION SKY/WX   TEMP    WIND        PRES    VSBY  WAVE
                          AIR SEA DIR/SP/G                  HT/PER
                          (F)     (DEG/KT/KT) (MB)    (MI)  (FT/S)
SOUTHERN BUOY              68 68   80/  8/ 10 1014.9          1/ 5
WILMETTE HARBOR            68 69   80/  6/  8   N/A           2/ 4
HARRISON CRIB              69      90/  4/  5   N/A
CALUMET HARBOR             66      40/  1/  3 1013.2F
BURNS HARBOR               66     100/  4/  5 1014.2F
MICHIGAN CITY              65     110/  5/  5   N/A
MICHIGAN CITY 6N           66 68  120/  8/ 12   N/A           2/ 5
ST. JOSEPH                 66 68  140/ 10/ 12 1014.2          2/ 2
$$

ILZ025>027-034>036-040-047-049-050-058-095>099-190900-
WEST-CENTRAL ILLINOIS

CITY           SKY/WX    TMP DP  RH WIND       PRES   REMARKS
QUINCY         FOG       67  66  97 SW6       29.94S VSB 1/4
GALESBURG*     FOG       65  65 100 CALM      29.95S VSB 1/4
MACOMB*        FOG       66  66 100 CALM      29.96S VSB 1/2
JACKSONVILLE*  FOG       66  66 100 CALM      29.94S VSB 1/4
PITTSFIELD*    FOG       64  64 100 CALM      29.95S VSB 1/2
$$

ILZ028>032-037-038-041>044-048-051>054-059>061-190900-
CENTRAL ILLINOIS

CITY           SKY/WX    TMP DP  RH WIND       PRES   REMARKS
PONTIAC        LGT RAIN  65  64  98 CALM      29.94S
BLOOMINGTON    CLOUDY    66  65  96 SE6       29.95S
DECATUR        CLOUDY    68  68 100 S5        29.94F FOG
PEORIA         CLOUDY    68  68 100 CALM      29.94S FOG
LACON*         CLOUDY    61  61 100 CALM      29.94R
LINCOLN*       FOG       67  67 100 CALM      29.93F VSB 1/4
SPRINGFIELD    FOG       67  67 100 CALM      29.93F VSB 3/4
TAYLORVILLE    FOG       65  65 100 CALM      29.95S VSB 1/2
$$

ILZ033-039-045-046-055>057-062-063-190900-
EAST-CENTRAL ILLINOIS

CITY           SKY/WX    TMP DP  RH WIND       PRES   REMARKS
CHAMPAIGN      CLOUDY    69  68  96 CALM      29.94S FOG
RANTOUL*       LGT RAIN  69  68  98 CALM      29.94S
MATTOON        CLOUDY    68  68 100 CALM      29.94F
PARIS*         CLOUDY    69  69 100 SW3       29.95F THUNDER FOG
$$

ILZ079-100>102-190900-
SOUTHWEST ILLINOIS

CITY           SKY/WX    TMP DP  RH WIND       PRES   REMARKS
ALTON          FOG       65  65 100 CALM      29.95R VSB 1/2
BELLEVILLE     MOCLDY    68  65  90 NW1       29.95F
CAHOKIA*       MOCLDY    70  67  90 CALM      29.93F
SPARTA*        CLOUDY    70  70 100 CALM      29.95S FOG
$$

ILZ064>066-069>071-074>076-080>082-084>086-088>090-092>094-190900-
SOUTH-CENTRAL ILLINOIS

CITY           SKY/WX    TMP DP  RH WIND       PRES   REMARKS
CARBONDALE     CLOUDY    69  69 100 SW3       29.92F
CAIRO*         CLOUDY    70  69  96 CALM      29.93F
EFFINGHAM*     CLOUDY    70  70 100 CALM      29.96S THUNDER FOG
MARION         CLOUDY    72  70  94 CALM      29.94F
MT. VERNON     LGT RAIN  68  66  94 E5        29.93F
CENTRALIA*     CLOUDY    71  71 100 CALM      29.93S FOG
SALEM*         CLOUDY    71  69  93 CALM      29.94S
METROPOLIS*    CLOUDY    72  69  90 NW7       29.95F
$$

ILZ067-068-072-073-078-083-087-091-190900-
SOUTHEAST ILLINOIS

CITY           SKY/WX    TMP DP  RH WIND       PRES   REMARKS
LAWRENCEVILLE  LGT RAIN  70  69  97 N3        29.95F FOG
FLORA*         TSTM      71  69  93 CALM      29.96S
FAIRFIELD*     CLOUDY    69  69 100 CALM      29.93F THUNDER
HARRISBURG*    CLOUDY    71  71 100 CALM      29.94S
ROBINSON*      TSTM      66  66  99 S3        29.94F
CARMI*         TSTM      70  70 100 W5        29.94S
$$

ABBREVIATIONS USED IN REMARKS
   TC - TEMPERATURE IN CELSIUS
  WCI - WIND CHILL INDEX
   HX - HEAT INDEX
  VSB - VISIBILITY
$$





USA.gov is the U.S. government's official web portal to all federal, state and local government web resources and services.